User: anonymous   Login
Location: Unspecified
(0.0000°N, 0.0000°E)
Time: 06:08:55
(UTC+01:00)
Language:

CZ-4 R/B - Orbit

View from above orbital plane
View from above orbital plane
View from above satellite
View from above satellite

Ground track
Ground track

The orbit data is extracted from the following two-line orbital elements,

1 28059U 03049C   14298.17935012  .00000544  00000-0  14444-3 0  1986
2 28059 098.6838 141.3967 0049413 308.6303 160.4005 14.52179731583454
Epoch (UTC): 25 October 2014 04:18:15
Eccentricity: 0.0049413
inclination: 98.6838°
perigee height: 683 km
apogee height: 753 km
right ascension of ascending node: 141.3967°
argument of perigee: 308.6303°
revolutions per day: 14.52179731
mean anomaly at epoch: 160.4005°
orbit number at epoch: 58345

The dashed part of the orbit path shows where the satellite is in the earth's shadow,  

DLR